TimeCST,TemperatureF,Dew PointF,Humidity,Sea Level PressureIn,VisibilityMPH,Wind Direction,Wind SpeedMPH,Gust SpeedMPH,PrecipitationIn,Events,Conditions,WindDirDegrees,DateUTC
12:53 AM,43.0,33.1,68,30.09,10.0,South,9.2,-,N/A,,Clear,170,2012-11-18 06:53:00
1:53 AM,43.0,33.1,68,30.07,10.0,South,10.4,-,N/A,,Clear,180,2012-11-18 07:53:00
2:53 AM,42.1,33.1,70,30.07,10.0,South,8.1,-,N/A,,Clear,180,2012-11-18 08:53:00
3:53 AM,42.1,33.1,70,30.06,10.0,South,9.2,-,N/A,,Clear,180,2012-11-18 09:53:00
4:53 AM,41.0,33.1,73,30.06,10.0,South,10.4,-,N/A,,Clear,180,2012-11-18 10:53:00
5:53 AM,39.9,33.1,77,30.07,10.0,South,9.2,-,N/A,,Clear,170,2012-11-18 11:53:00
6:53 AM,39.0,32.0,76,30.07,10.0,South,8.1,-,N/A,,Clear,170,2012-11-18 12:53:00
7:53 AM,39.0,30.9,73,30.08,10.0,South,9.2,-,N/A,,Clear,170,2012-11-18 13:53:00
8:53 AM,44.1,32.0,63,30.08,10.0,South,11.5,-,N/A,,Clear,180,2012-11-18 14:53:00
9:53 AM,48.9,32.0,52,30.06,10.0,South,13.8,-,N/A,,Clear,180,2012-11-18 15:53:00
10:53 AM,53.1,32.0,45,30.05,10.0,South,12.7,-,N/A,,Clear,190,2012-11-18 16:53:00
11:53 AM,54.0,33.1,45,30.04,10.0,South,13.8,-,N/A,,Clear,170,2012-11-18 17:53:00
12:53 PM,55.0,33.1,43,30.00,10.0,South,13.8,-,N/A,,Clear,170,2012-11-18 18:53:00
1:53 PM,55.9,34.0,44,29.99,10.0,South,16.1,-,N/A,,Clear,170,2012-11-18 19:53:00
2:53 PM,57.9,36.0,44,29.99,10.0,SSE,11.5,-,N/A,,Clear,160,2012-11-18 20:53:00
3:53 PM,57.0,37.0,47,29.99,10.0,SSE,8.1,-,N/A,,Clear,160,2012-11-18 21:53:00
4:53 PM,55.0,37.9,53,29.99,10.0,SSE,8.1,-,N/A,,Clear,160,2012-11-18 22:53:00
5:53 PM,53.1,39.0,59,30.00,10.0,SSE,10.4,-,N/A,,Clear,150,2012-11-18 23:53:00
6:53 PM,50.0,37.9,63,30.02,10.0,South,8.1,-,N/A,,Clear,170,2012-11-19 00:53:00
7:53 PM,48.0,37.9,68,30.01,10.0,SSE,6.9,-,N/A,,Clear,160,2012-11-19 01:53:00
8:53 PM,48.0,37.9,68,30.01,10.0,South,10.4,-,N/A,,Clear,170,2012-11-19 02:53:00
9:53 PM,46.9,37.0,68,30.00,10.0,South,11.5,-,N/A,,Clear,170,2012-11-19 03:53:00
10:53 PM,44.6,35.6,71,29.98,10.0,SSE,9.2,-,N/A,,Clear,160,2012-11-19 04:53:00
11:53 PM,44.1,36.0,73,29.99,10.0,South,11.5,-,N/A,,Clear,170,2012-11-19 05:53:00